Simultaneous Nadir Overpasses (SNOs) Predictions

Prediction of SNOs between LANDSAT-8 and NPP Satellite Orbit:

Table of predicted SNOs for the next 14.0 days since TLE Epoch: 12/19/2020
Index Date (LANDSAT-8) Time (LANDSAT-8) Lat,Lon (LANDSAT-8) SZA (LANDSAT-8 ) Date (NPP) Time (NPP) Lat,Lon (NPP) SZA (NPP ) Distance(km) Time Diff (sec)
1 12/21/2020 15:31:43 -70.08, 123.55 86.57 12/21/2020 15:31:07 -70.07, 123.52 86.57 1.16 36
2 12/21/2020 16:21:10 69.97, -68.96 93.33 12/21/2020 16:21:51 69.95, -68.99 93.31 2.42 41
3 12/24/2020 06:58:37 70.37, 72.23 93.70 12/24/2020 06:57:25 70.43, 71.41 93.78 31.13 72
4 12/24/2020 07:48:11 -70.05,-120.61 86.63 12/24/2020 07:48:01 -70.02,-120.64 86.65 3.11 10
5 12/24/2020 08:37:39 69.88, 46.80 93.22 12/24/2020 08:38:45 69.91, 46.84 93.23 2.97 66
6 12/26/2020 23:15:11 70.06,-172.34 93.31 12/26/2020 23:14:14 70.07,-172.27 93.33 2.76 57
7 12/27/2020 00:04:41 -69.96, -4.85 86.80 12/27/2020 00:04:56 -69.98, -4.81 86.78 2.53 15
8 12/27/2020 00:54:20 69.18, 161.74 92.45 12/27/2020 00:55:27 69.18, 163.67 92.40 76.01 67
9 12/29/2020 15:31:40 70.02, -56.51 93.13 12/29/2020 15:31:09 70.04, -56.45 93.15 2.93 31
10 12/29/2020 16:21:10 -69.92, 110.98 86.97 12/29/2020 16:21:51 -69.94, 111.02 86.96 2.33 41
11 01/01/2021 06:58:38 -70.31,-107.86 86.78 01/01/2021 06:57:25 -70.37,-108.51 86.70 24.99 73
12 01/01/2021 07:48:08 70.03, 59.38 92.95 01/01/2021 07:48:04 70.00, 59.37 92.93 3.09 4
13 01/01/2021 08:37:39 -69.88,-133.20 87.21 01/01/2021 08:38:46 -69.90,-133.16 87.19 3.02 67



Historial Predications of SNOs between LANDSAT-8 and NPP
